Location: Brede
(50.9167°N, 0.6000°E)
Time: 17:36:58
(UTC+00:00)

USA 215 - Pass Details

Date: 08 August 2020
Orbit: 1102 x 1106 km, 123.0° (Epoch: 08 August)

Event Time Altitude Azimuth Distance (km) Brightness Sun altitude
Rises 02:40:02 0° 57° (ENE) 3,929 7.6 -14.8°
Reaches altitude 10° 02:42:34 10° 61° (ENE) 2,969 6.7 -14.5°
Maximum altitude 02:49:05 66° 143° (SE) 1,199 3.4 -13.9°
Enters shadow 02:54:08 18° 222° (SW) 2,423 4.4 -13.3°
